GW3474 Weather Reports


time (UTC)temp
C
wind
direction
speed
KPH
gust
KPH
rain 1hr
cm
rain 24hr
cm
rain mn
cm
humidity
%
barometer
mb
20260508025516 16 0.0 0.0 0.00 0.00 0.00 41 1012.7
20260508024516 17 0.0 0.0 0.00 0.00 0.00 41 1012.4
20260508023516 17 0.0 0.0 0.00 0.00 0.00 40 1012.5
20260508022536 17 0.0 0.0 0.00 0.00 0.00 39 1012.4
20260508021515 18 0.0 0.0 0.00 0.00 0.00 38 1012.1
20260508020517 18 0.0 0.0 0.00 0.00 0.00 37 1012.2
20260508015536 20 0.0 0.0 0.00 0.00 0.00 35 1012.1
20260508014516 20 0.0 0.0 0.00 0.00 0.00 32 1011.9
20260508013515 21 0.0 0.0 0.00 0.00 0.00 30 1012.0
20260508012515 21 0.0 0.0 0.00 0.00 0.00 29 1011.9
20260508011515 22 0.0 0.0 0.00 0.00 0.00 27 1011.9
20260508010515 23 0.0 0.0 0.00 0.00 0.00 25 1011.7
20260508005515 23 0.0 0.0 0.00 0.00 0.00 23 1011.8
20260508004515 24 0.0 0.0 0.00 0.00 0.00 23 1011.6
20260508003515 24 0.0 0.0 0.00 0.00 0.00 21 1011.6
20260508002517 25 0.0 0.0 0.00 0.00 0.00 21 1011.7
20260508001516 25 0.0 0.0 0.00 0.00 0.00 21 1011.8
20260508000515 25 0.0 0.0 0.00 0.00 0.00 20 1011.8
20260507235515 25 0.0 0.0 0.00 0.00 0.00 19 1011.9
20260507234535 25 0.0 0.0 0.00 0.00 0.00 18 1011.9
20260507233556 25 0.0 0.0 0.00 0.00 0.00 18 1011.8
20260507232515 25 0.0 0.0 0.00 0.00 0.00 19 1012.0
20260507231515 25 0.0 0.0 0.00 0.00 0.00 19 1012.0
20260507230515 25 0.0 0.0 0.00 0.00 0.00 19 1012.1
20260507225535 25 0.0 0.0 0.00 0.00 0.00 19 1012.2
20260507224515 25 0.0 0.0 0.00 0.00 0.00 20 1012.3
20260507223535 25 0.0 0.0 0.00 0.00 0.00 18 1012.3
20260507222515 25 0.0 0.0 0.00 0.00 0.00 19 1012.4
20260507221516 25 0.0 0.0 0.00 0.00 0.00 20 1012.5
20260507220516 25 0.0 0.0 0.00 0.00 0.00 20 1012.7
20260507215516 25 0.0 0.0 0.00 0.00 0.00 20 1012.8
20260507214515 25 0.0 0.0 0.00 0.00 0.00 19 1012.9
20260507213535 25 0.0 0.0 0.00 0.00 0.00 20 1013.0
20260507212517 24 0.0 0.0 0.00 0.00 0.00 21 1013.1
20260507211515 24 0.0 0.0 0.00 0.00 0.00 21 1013.3
20260507210516 24 0.0 0.0 0.00 0.00 0.00 23 1013.5
20260507205515 23 0.0 0.0 0.00 0.00 0.00 23 1013.6
20260507204516 23 0.0 0.0 0.00 0.00 0.00 24 1013.8
20260507203536 23 0.0 0.0 0.00 0.00 0.00 24 1014.0
20260507202515 23 0.0 0.0 0.00 0.00 0.00 24 1014.2
20260507201516 23 0.0 0.0 0.00 0.00 0.00 26 1014.4
20260507200516 22 0.0 0.0 0.00 0.00 0.00 26 1014.7
20260507195516 22 0.0 0.0 0.00 0.00 0.00 25 1014.7
20260507194515 22 0.0 0.0 0.00 0.00 0.00 25 1014.8
20260507193536 22 0.0 0.0 0.00 0.00 0.00 26 1015.0
20260507192515 22 0.0 0.0 0.00 0.00 0.00 29 1015.1
20260507191535 21 0.0 0.0 0.00 0.00 0.00 26 1015.1
20260507190515 21 0.0 0.0 0.00 0.00 0.00 27 1015.2
20260507185517 21 0.0 0.0 0.00 0.00 0.00 27 1015.3
20260507184515 21 0.0 0.0 0.00 0.00 0.00 29 1015.6
20260507183515 21 0.0 0.0 0.00 0.00 0.00 31 1015.7
20260507182556 20 0.0 0.0 0.00 0.00 0.00 31 1015.9
20260507181515 20 0.0 0.0 0.00 0.00 0.00 33 1016.0
20260507180515 20 0.0 0.0 0.00 0.00 0.00 36 1016.1
20260507175515 20 0.0 0.0 0.00 0.00 0.00 37 1016.1
20260507174515 19 0.0 0.0 0.00 0.00 0.00 39 1016.2
20260507173538 18 0.0 0.0 0.00 0.00 0.00 39 1016.4
20260507172516 18 0.0 0.0 0.00 0.00 0.00 40 1016.7
20260507171515 18 0.0 0.0 0.00 0.00 0.00 39 1016.9
20260507170516 17 0.0 0.0 0.00 0.00 0.00 39 1016.9
20260507165515 17 0.0 0.0 0.00 0.00 0.00 42 1017.0
20260507164516 17 0.0 0.0 0.00 0.00 0.00 44 1017.2
20260507163516 16 0.0 0.0 0.00 0.00 0.00 46 1017.3
20260507162535 16 0.0 0.0 0.00 0.00 0.00 48 1017.3
20260507161516 15 0.0 0.0 0.00 0.00 0.00 49 1017.4
20260507160516 15 0.0 0.0 0.00 0.00 0.00 50 1017.5
20260507155516 15 0.0 0.0 0.00 0.00 0.00 51 1017.6
20260507154515 15 0.0 0.0 0.00 0.00 0.00 51 1017.7
20260507153536 14 0.0 0.0 0.00 0.00 0.00 53 1017.6
20260507152515 13 0.0 0.0 0.00 0.00 0.00 55 1017.6
20260507151516 13 0.0 0.0 0.00 0.00 0.00 57 1017.6
20260507150516 12 0.0 0.0 0.00 0.00 0.00 59 1017.4
20260507145515 11 0.0 0.0 0.00 0.00 0.00 65 1017.4
20260507144537 11 0.0 0.0 0.00 0.00 0.00 69 1017.4
20260507143515 10 0.0 0.0 0.00 0.00 0.00 72 1017.4
20260507142517 10 0.0 0.0 0.00 0.00 0.00 72 1017.5
20260507141516 10 0.0 0.0 0.00 0.00 0.00 77 1017.6
20260507140516 8 0.0 0.0 0.00 0.00 0.00 81 1017.6
20260507135517 8 0.0 0.0 0.00 0.00 0.00 83 1017.7
20260507134516 7 0.0 0.0 0.00 0.00 0.00 86 1017.9
20260507133515 7 0.0 0.0 0.00 0.00 0.00 87 1017.9
20260507132515 7 0.0 0.0 0.00 0.00 0.00 89 1017.9
20260507131516 6 0.0 0.0 0.00 0.00 0.00 90 1018.0
20260507130515 6 0.0 0.0 0.00 0.00 0.00 91 1018.0
20260507125515 5 0.0 0.0 0.00 0.00 0.00 93 1018.0
20260507124515 5 0.0 0.0 0.00 0.00 0.00 96 1017.8
20260507123537 3 0.0 0.0 0.00 0.00 0.00 97 1017.6
20260507122536 3 0.0 0.0 0.00 0.00 0.00 97 1017.5
20260507121515 3 0.0 0.0 0.00 0.00 0.00 97 1017.4
20260507120515 3 0.0 0.0 0.00 0.00 0.00 97 1017.4
20260507115515 3 0.0 0.0 0.00 0.00 0.00 97 1017.4
20260507114516 3 0.0 0.0 0.00 0.00 0.00 97 1017.4
20260507113536 3 0.0 0.0 0.00 0.00 0.00 97 1017.4
20260507112515 3 0.0 0.0 0.00 0.00 0.00 97 1017.4
20260507111515 3 0.0 0.0 0.00 0.00 0.00 97 1017.5
20260507110516 3 0.0 0.0 0.00 0.00 0.00 97 1017.5
20260507105516 3 0.0 0.0 0.00 0.00 0.00 97 1017.6
20260507104515 3 0.0 0.0 0.00 0.00 0.00 97 1017.6
20260507103516 4 0.0 0.0 0.00 0.00 0.00 97 1017.6
20260507102516 4 0.0 0.0 0.00 0.00 0.00 97 1017.7
20260507101516 4 0.0 0.0 0.00 0.00 0.00 96 1017.7
20260507100516 4 0.0 0.0 0.00 0.00 0.00 96 1017.7
20260507095515 5 0.0 0.0 0.00 0.00 0.00 96 1017.9
20260507094515 5 0.0 0.0 0.00 0.00 0.00 95 1018.1
20260507093516 5 0.0 0.0 0.00 0.00 0.00 95 1018.2
20260507092516 5 0.0 0.0 0.00 0.00 0.00 96 1018.4
20260507091515 5 0.0 0.0 0.00 0.00 0.00 97 1018.5
20260507090515 5 0.0 0.0 0.00 0.00 0.00 97 1018.6
20260507085515 5 0.0 0.0 0.00 0.00 0.00 97 1018.6
20260507084516 5 0.0 0.0 0.00 0.00 0.00 97 1018.7
20260507083515 5 0.0 0.0 0.00 0.00 0.00 97 1018.8
20260507082515 5 0.0 0.0 0.00 0.00 0.00 97 1018.8
20260507081516 5 0.0 0.0 0.00 0.00 0.00 97 1019.0
20260507080516 6 0.0 0.0 0.00 0.00 0.00 96 1019.1
20260507075516 6 0.0 0.0 0.00 0.00 0.00 96 1019.2
20260507074515 6 0.0 0.0 0.00 0.00 0.00 96 1019.3
20260507073515 6 0.0 0.0 0.00 0.00 0.00 96 1019.4
20260507072515 6 0.0 0.0 0.00 0.00 0.00 96 1019.5
20260507071516 6 0.0 0.0 0.00 0.00 0.00 96 1019.6
20260507070515 6 0.0 0.0 0.00 0.00 0.00 96 1019.7
20260507065515 6 0.0 0.0 0.00 0.00 0.00 95 1019.9
20260507064516 6 0.0 0.0 0.00 0.00 0.00 96 1019.8
20260507063515 6 0.0 0.0 0.00 0.03 0.00 95 1019.8
20260507062515 6 0.0 0.0 0.00 0.03 0.00 95 1020.0
20260507061515 7 0.0 0.0 0.00 0.03 0.00 94 1020.0
20260507060515 7 0.0 0.0 0.00 0.05 0.00 94 1020.0
20260507055516 7 0.0 0.0 0.00 0.05 0.00 94 1020.1
20260507054515 7 0.0 0.0 0.00 0.05 0.00 94 1020.1
20260507053516 7 0.0 0.0 0.00 0.05 0.00 93 1020.1
20260507052515 7 0.0 0.0 0.00 0.05 0.00 93 1020.1
20260507051516 7 0.0 0.0 0.00 0.05 0.00 92 1020.0
20260507050535 7 0.0 0.0 0.00 0.05 0.00 92 1020.1
20260507045515 8 0.0 0.0 0.00 0.05 0.05 90 1020.2
20260507044535 8 0.0 0.0 0.00 0.05 0.05 89 1020.2
20260507043515 8 0.0 0.0 0.00 0.05 0.05 87 1020.2
20260507042516 8 0.0 0.0 0.00 0.05 0.05 87 1020.4
20260507041516 8 0.0 0.0 0.00 0.05 0.05 87 1020.4
20260507040516 8 0.0 0.0 0.00 0.05 0.05 86 1020.4
20260507035516 9 0.0 0.0 0.00 0.05 0.05 84 1020.2
20260507034515 9 0.0 0.0 0.00 0.08 0.05 87 1020.1
20260507033516 9 0.0 0.0 0.00 0.08 0.05 85 1020.0
20260507032516 9 0.0 0.0 0.00 0.08 0.05 84 1019.8
20260507031515 10 0.0 0.0 0.00 0.08 0.05 82 1019.9
20260507030516 10 0.0 0.0 0.00 0.08 0.05 80 1019.6